Weather reports worldwide

Advertisment
Gibraltar, United Kingdom (8495): temperature & dewpoint: 16.06.2018 15:00:00 - 22.06.2018 15:00:00 (CEST)Gibraltar, United Kingdom (8495): wind speed & gusts: 16.06.2018 15:00:00 - 22.06.2018 15:00:00 (CEST)Gibraltar, United Kingdom (8495): wind direction: 16.06.2018 15:00:00 - 22.06.2018 15:00:00 (CEST)Gibraltar, United Kingdom (8495): reduced air pressure: 16.06.2018 15:00:00 - 22.06.2018 15:00:00 (CEST)Gibraltar, United Kingdom (8495): visibility: 16.06.2018 15:00:00 - 22.06.2018 15:00:00 (CEST)
Date & Time tt [°C] td [°C] ff [km/h] ff [kn] fx [km/h] fx [kn] dd ppp [hPa] vv [km]
22.06.2018 15:00:00 26,1 13,1 18 10 - - ESE 1016,2 30
22.06.2018 14:00:00 26,3 13,1 16 9 - - E 1016,4 30
22.06.2018 13:00:00 24,0 16,6 13 7 - - E 1017,0 30
22.06.2018 12:00:00 23,4 18,1 11 6 - - E 1017,1 30
22.06.2018 11:00:00 23,6 18,1 5 3 - - E 1017,0 30
22.06.2018 10:00:00 20,5 17,8 4 2 - - W 1017,1 25
22.06.2018 09:00:00 21,1 17,9 4 2 - - W 1016,8 25
22.06.2018 08:00:00 18,2 17,8 9 5 - - W 1016,9 25
22.06.2018 07:00:00 19,7 18,4 0 0 - - N 1016,4 15
22.06.2018 06:00:00 19,0 18,2 8 4 - - W 1016,6 13
22.06.2018 05:00:00 19,5 18,5 5 3 - - WSW 1016,6 12
22.06.2018 04:00:00 20,1 18,7 5 3 - - WSW 1017,1 13
22.06.2018 03:00:00 20,7 18,9 4 2 - - NE 1017,4 15
22.06.2018 02:00:00 20,6 18,6 8 4 - - NE 1017,8 14
22.06.2018 01:00:00 21,1 17,9 13 7 - - E 1017,9 15
22.06.2018 00:00:00 20,3 17,9 13 7 - - ENE 1017,9 10
21.06.2018 23:00:00 23,3 15,4 18 10 - - ESE 1017,2 17
21.06.2018 22:00:00 23,7 15,4 22 12 - - ESE 1016,6 10
21.06.2018 21:00:00 23,5 16,2 18 10 - - E 1016,5 25
21.06.2018 20:00:00 24,2 15,9 18 10 - - E 1016,3 25
21.06.2018 19:00:00 23,9 17,1 15 8 - - E 1016,4 25
21.06.2018 18:00:00 22,7 18,7 13 7 - - ENE 1016,8 30
21.06.2018 17:00:00 23,1 18,9 15 8 - - ENE 1017,0 30
21.06.2018 16:00:00 23,3 17,6 11 6 - - ENE 1017,2 30
21.06.2018 15:00:00 22,9 17,7 13 7 - - ENE 1017,3 30
21.06.2018 14:00:00 22,8 19,7 11 6 - - ENE 1017,6 25
21.06.2018 13:00:00 22,3 19,7 11 6 - - ENE 1017,8 25
21.06.2018 12:00:00 21,3 17,9 11 6 - - ENE 1017,4 20
21.06.2018 11:00:00 21,8 19,5 16 9 - - E 1017,2 20
21.06.2018 10:00:00 21,8 18,9 18 10 - - E 1017,3 30
21.06.2018 09:00:00 22,1 18,0 11 6 - - SE 1017,3 25
21.06.2018 08:00:00 20,9 17,2 21 11 - - ESE 1016,5 25
21.06.2018 07:00:00 20,2 16,4 16 9 - - ENE 1015,7 25
21.06.2018 06:00:00 20,5 16,6 13 7 - - SW 1017,7 10
21.06.2018 05:00:00 21,9 15,1 26 14 - - E 1016,9 10
21.06.2018 04:00:00 20,9 16,8 21 11 - - ENE 1016,5 14
21.06.2018 03:00:00 21,2 17,9 13 7 - - E 1017,5 15
21.06.2018 02:00:00 20,0 18,7 4 2 - - ENE 1018,3 15
21.06.2018 01:00:00 19,4 18,7 13 7 - - ENE 1017,7 14
21.06.2018 00:00:00 20,4 18,4 18 10 - - E 1017,6 15
20.06.2018 23:00:00 20,7 18,5 21 11 - - E 1017,2 15
20.06.2018 22:00:00 20,4 18,4 18 10 - - E 1016,6 10
20.06.2018 21:00:00 20,5 17,8 18 10 - - ENE 1016,6 20
20.06.2018 20:00:00 22,1 17,7 18 10 - - E 1016,3 15
20.06.2018 19:00:00 21,8 17,2 18 10 - - E 1016,2 15
20.06.2018 18:00:00 22,9 17,0 22 12 - - E 1016,6 20
20.06.2018 17:00:00 21,8 17,3 21 11 - - E 1016,8 30
20.06.2018 16:00:00 22,0 17,4 21 11 - - E 1017,2 30
20.06.2018 15:00:00 22,6 17,3 18 10 - - ENE 1017,6 30
20.06.2018 14:00:00 23,0 17,2 22 12 - - ENE 1018,1 30
20.06.2018 13:00:00 22,8 17,0 24 13 - - ENE 1018,4 10
20.06.2018 12:00:00 21,4 17,2 21 11 - - E 1018,4 30
20.06.2018 11:00:00 21,5 17,3 22 12 - - E 1018,2 30
20.06.2018 10:00:00 21,2 17,9 21 11 - - E 1018,0 20
20.06.2018 09:00:00 20,0 18,1 22 12 - - E 1018,1 15
20.06.2018 08:00:00 20,6 18,6 21 11 - - E 1018,7 15
20.06.2018 07:00:00 19,9 19,0 22 12 - - E 1018,1 15
20.06.2018 06:00:00 18,8 18,6 26 14 - - ENE 1017,5 12
20.06.2018 05:00:00 18,9 18,3 26 14 - - E 1018,0 13
20.06.2018 04:00:00 19,1 18,4 26 14 - - E 1018,1 13
20.06.2018 03:00:00 19,3 18,4 24 13 - - ENE 1018,4 10
20.06.2018 02:00:00 19,4 18,5 37 20 46 25 ENE 1018,8 14
20.06.2018 01:00:00 19,3 18,3 35 19 - - ENE 1019,1 14
20.06.2018 00:00:00 20,0 18,3 28 15 - - E 1019,3 15
19.06.2018 23:00:00 19,8 18,1 26 14 - - ENE 1018,9 14
19.06.2018 22:00:00 19,9 17,4 28 15 - - E 1018,4 15
19.06.2018 21:00:00 20,4 17,0 29 16 - - E 1018,6 14
19.06.2018 20:00:00 21,9 15,7 34 18 46 25 E 1018,5 15
19.06.2018 19:00:00 21,6 16,3 29 16 - - E 1018,6 15
19.06.2018 18:00:00 21,6 16,0 22 12 - - E 1019,0 20
19.06.2018 17:00:00 22,9 15,9 24 13 - - ENE 1019,3 25
19.06.2018 16:00:00 22,2 15,7 22 12 - - E 1019,6 25
19.06.2018 15:00:00 23,2 16,5 21 11 - - E 1020,0 25
19.06.2018 14:00:00 23,5 16,5 26 14 50 27 E 1020,3 20
19.06.2018 13:00:00 23,1 18,7 29 16 46 25 E 1020,5 20
19.06.2018 12:00:00 22,6 17,8 24 13 - - E 1020,5 20
19.06.2018 11:00:00 21,7 17,8 24 13 - - E 1020,3 20
19.06.2018 10:00:00 20,5 17,8 24 13 - - E 1020,3 25
19.06.2018 09:00:00 19,7 17,7 21 11 - - E 1020,1 20
19.06.2018 08:00:00 19,3 17,0 21 11 - - E 1019,6 30
19.06.2018 07:00:00 19,8 15,9 22 12 - - E 1019,4 30
19.06.2018 06:00:00 20,1 15,2 24 13 - - E 1019,0 15
19.06.2018 05:00:00 20,8 15,1 28 15 48 26 E 1018,8 16
19.06.2018 04:00:00 20,7 15,4 29 16 - - E 1018,6 16
19.06.2018 03:00:00 21,3 14,6 26 14 - - E 1018,8 16
19.06.2018 02:00:00 20,7 15,5 18 10 - - E 1019,1 15
19.06.2018 01:00:00 20,4 15,6 16 9 - - E 1019,4 15
19.06.2018 00:00:00 19,8 15,9 13 7 - - E 1019,5 16
18.06.2018 23:00:00 19,6 16,0 11 6 - - ENE 1019,0 10
18.06.2018 22:00:00 20,5 15,0 11 6 - - ENE 1018,4 20
18.06.2018 21:00:00 22,0 14,5 11 6 - - NE 1018,1 18
18.06.2018 20:00:00 22,0 16,8 11 6 - - ENE 1018,0 18
18.06.2018 19:00:00 22,1 17,5 11 6 - - ENE 1018,0 18
18.06.2018 18:00:00 21,6 18,0 13 7 - - ENE 1018,1 18
18.06.2018 17:00:00 22,6 18,6 16 9 - - E 1018,5 18
18.06.2018 16:00:00 23,7 18,3 18 10 - - E 1018,6 25
18.06.2018 15:00:00 24,6 15,8 29 16 - - SE 1018,7 10
18.06.2018 14:00:00 22,6 16,8 26 14 - - ESE 1018,5 25
18.06.2018 13:00:00 22,3 15,2 22 12 - - E 1018,9 25
18.06.2018 12:00:00 22,2 15,4 24 13 - - E 1019,3 25
18.06.2018 11:00:00 22,4 16,2 29 16 50 27 ESE 1019,2 40
18.06.2018 10:00:00 22,3 13,9 28 15 52 28 ESE 1019,2 40
18.06.2018 09:00:00 22,4 11,9 26 14 46 25 E 1018,7 40
18.06.2018 08:00:00 21,5 12,4 21 11 - - E 1018,5 40
18.06.2018 07:00:00 20,4 14,5 16 9 - - E 1018,2 30
18.06.2018 06:00:00 20,3 15,8 16 9 - - E 1018,4 10
18.06.2018 05:00:00 20,4 16,0 21 11 - - E 1018,6 16
18.06.2018 04:00:00 19,0 16,9 13 7 - - E 1018,6 15
18.06.2018 03:00:00 18,9 16,8 13 7 - - E 1019,1 15
18.06.2018 02:00:00 18,9 16,2 16 9 - - ENE 1019,3 15
18.06.2018 01:00:00 19,5 16,4 16 9 - - E 1019,6 15
18.06.2018 00:00:00 20,9 16,5 22 12 - - E 1019,7 16
17.06.2018 23:00:00 21,3 17,1 15 8 - - E 1019,3 15
17.06.2018 22:00:00 19,8 17,1 11 6 - - ENE 1019,3 16
17.06.2018 21:00:00 20,9 17,5 15 8 - - NE 1019,2 18
17.06.2018 20:00:00 22,1 17,7 15 8 - - E 1018,9 20
17.06.2018 19:00:00 21,5 17,6 13 7 - - E 1019,0 20
17.06.2018 18:00:00 22,2 17,2 13 7 - - ENE 1019,1 20
17.06.2018 17:00:00 22,6 16,9 13 7 - - ENE 1018,9 20
17.06.2018 16:00:00 22,1 16,1 16 9 - - ENE 1019,1 20
17.06.2018 15:00:00 22,4 16,0 18 10 - - ENE 1019,2 20
17.06.2018 14:00:00 21,8 15,2 18 10 - - E 1019,2 20
17.06.2018 13:00:00 21,7 16,0 21 11 - - E 1018,9 4,0
17.06.2018 12:00:00 19,7 16,9 18 10 - - ENE 1018,9 0,8
17.06.2018 11:00:00 20,2 15,8 11 6 - - ENE 1018,6 5
17.06.2018 10:00:00 20,1 16,5 9 5 - - NE 1018,1 5
17.06.2018 09:00:00 19,6 16,7 11 6 - - NE 1017,7 5
17.06.2018 08:00:00 16,1 14,5 4 2 - - WNW 1017,3 5
17.06.2018 07:00:00 16,3 14,6 4 2 - - WSW 1017,0 12
17.06.2018 06:00:00 16,5 14,2 2 1 - - SW 1016,7 14
17.06.2018 05:00:00 17,0 14,9 2 1 - - E 1016,5 14
17.06.2018 04:00:00 17,6 16,3 8 4 - - NE 1016,4 13
17.06.2018 03:00:00 17,5 16,3 11 6 - - ENE 1016,4 13
17.06.2018 02:00:00 19,4 16,0 13 7 - - E 1016,3 14
17.06.2018 01:00:00 19,9 15,5 13 7 - - E 1016,2 14
17.06.2018 00:00:00 19,6 15,9 13 7 - - E 1015,8 15
16.06.2018 23:00:00 19,1 16,3 8 4 - - ENE 1015,3 14
16.06.2018 22:00:00 18,9 16,6 9 5 - - E 1014,6 10
16.06.2018 21:00:00 19,8 16,5 11 6 - - ENE 1014,3 13
16.06.2018 20:00:00 20,2 16,6 13 7 - - ENE 1014,3 12
16.06.2018 19:00:00 19,2 16,7 13 7 - - E 1014,5 11
16.06.2018 18:00:00 19,1 16,8 15 8 - - ENE 1014,7 10
16.06.2018 17:00:00 19,1 16,7 15 8 - - ENE 1015,0 8
16.06.2018 16:00:00 18,8 16,6 11 6 - - ENE 1015,2 5
16.06.2018 15:00:00 19,4 16,6 18 10 - - E 1015,4 5

tt = temperature
td = dewpoint
ff = wind speed
fx = gusts
dd = wind direction
ppp = reduced air pressure
vv = visibility

Next stations